Time,TemperatureF,DewpointF,PressureIn,WindDirection,WindDirectionDegrees,WindSpeedMPH,WindSpeedGustMPH,Humidity,HourlyPrecipIn,Conditions,Clouds,dailyrainin,SolarRadiationWatts/m^2,SoftwareType,DateUTC
2013-06-24 00:04:00,60.0,42.0,-100.00,SE,139,1.0,3.0,52,0.00,,,0.00,0.000000,,2013-06-24 06:04:00,
2013-06-24 00:12:00,60.0,42.0,-100.00,SE,139,1.0,3.0,52,0.00,,,0.00,0.000000,,2013-06-24 06:12:00,
2013-06-24 00:22:00,60.0,42.0,-100.00,SE,139,1.0,3.0,52,0.00,,,0.00,0.000000,,2013-06-24 06:22:00,
2013-06-24 00:56:00,57.0,41.0,-100.00,ESE,121,0.0,7.0,55,0.00,,,0.00,0.000000,,2013-06-24 06:56:00,
2013-06-24 01:03:00,57.0,41.0,-100.00,ESE,121,0.0,7.0,55,0.00,,,0.00,0.000000,,2013-06-24 07:03:00,
2013-06-24 01:13:00,57.0,41.0,-100.00,ESE,121,0.0,7.0,55,0.00,,,0.00,0.000000,,2013-06-24 07:13:00,
2013-06-24 01:56:00,57.0,43.0,-100.00,East,87,0.0,4.0,60,0.00,,,0.00,0.000000,,2013-06-24 07:56:00,
2013-06-24 02:03:00,57.0,43.0,-100.00,East,87,0.0,4.0,60,0.00,,,0.00,0.000000,,2013-06-24 08:03:00,
2013-06-24 02:13:00,57.0,43.0,-100.00,East,87,0.0,4.0,60,0.00,,,0.00,0.000000,,2013-06-24 08:13:00,
2013-06-24 02:23:00,57.0,43.0,-100.00,East,87,0.0,4.0,60,0.00,,,0.00,0.000000,,2013-06-24 08:23:00,
2013-06-24 02:55:00,56.0,43.0,-100.00,ENE,71,0.0,4.0,61,0.00,,,0.00,0.000000,,2013-06-24 08:55:00,
2013-06-24 03:04:00,56.0,43.0,-100.00,ENE,71,0.0,4.0,61,0.00,,,0.00,0.000000,,2013-06-24 09:04:00,
2013-06-24 03:13:00,56.0,43.0,-100.00,ENE,71,0.0,4.0,61,0.00,,,0.00,0.000000,,2013-06-24 09:13:00,
2013-06-24 03:23:00,56.0,43.0,-100.00,ENE,71,0.0,4.0,61,0.00,,,0.00,0.000000,,2013-06-24 09:23:00,
2013-06-24 04:02:00,53.0,43.0,-100.00,SE,129,0.0,0.0,68,0.00,,,0.00,0.000000,,2013-06-24 10:02:00,
2013-06-24 04:13:00,53.0,43.0,-100.00,SE,129,0.0,0.0,68,0.00,,,0.00,0.000000,,2013-06-24 10:13:00,
2013-06-24 04:22:00,53.0,43.0,-100.00,SE,129,0.0,0.0,68,0.00,,,0.00,0.000000,,2013-06-24 10:22:00,
2013-06-24 04:57:00,52.0,42.0,-100.00,ENE,78,0.0,3.0,69,0.00,,,0.00,0.000000,,2013-06-24 10:57:00,
2013-06-24 05:02:00,52.0,42.0,-100.00,ENE,78,0.0,3.0,69,0.00,,,0.00,0.000000,,2013-06-24 11:02:00,
2013-06-24 05:13:00,52.0,42.0,-100.00,ENE,78,0.0,3.0,69,0.00,,,0.00,0.000000,,2013-06-24 11:13:00,
2013-06-24 05:25:00,52.0,42.0,-100.00,ENE,78,0.0,3.0,69,0.00,,,0.00,0.000000,,2013-06-24 11:25:00,
2013-06-24 05:56:00,51.0,42.0,-100.00,ESE,111,0.0,4.0,71,0.00,,,0.00,0.000000,,2013-06-24 11:56:00,
2013-06-24 06:03:00,51.0,42.0,-100.00,ESE,111,0.0,4.0,71,0.00,,,0.00,0.000000,,2013-06-24 12:03:00,
2013-06-24 06:14:00,51.0,42.0,-100.00,ESE,111,0.0,4.0,71,0.00,,,0.00,0.000000,,2013-06-24 12:14:00,
2013-06-24 06:23:00,51.0,42.0,-100.00,ESE,111,0.0,4.0,71,0.00,,,0.00,0.000000,,2013-06-24 12:23:00,
2013-06-24 06:55:00,48.0,42.0,-100.00,NNW,331,0.0,4.0,81,0.00,,,0.00,0.000000,,2013-06-24 12:55:00,
2013-06-24 07:04:00,48.0,42.0,-100.00,NNW,331,0.0,4.0,81,0.00,,,0.00,0.000000,,2013-06-24 13:04:00,
2013-06-24 07:13:00,48.0,42.0,-100.00,NNW,331,0.0,4.0,81,0.00,,,0.00,0.000000,,2013-06-24 13:13:00,
2013-06-24 07:22:00,48.0,42.0,-100.00,NNW,331,0.0,4.0,81,0.00,,,0.00,0.000000,,2013-06-24 13:22:00,
2013-06-24 08:02:00,50.0,44.0,-100.00,East,89,0.0,2.0,79,0.00,,,-99.99,21.000000,,2013-06-24 14:02:00,
2013-06-24 08:13:00,50.0,44.0,-100.00,East,89,0.0,2.0,79,0.00,,,-99.99,21.000000,,2013-06-24 14:13:00,
2013-06-24 08:22:00,50.0,44.0,-100.00,East,89,0.0,2.0,79,0.00,,,-99.99,21.000000,,2013-06-24 14:22:00,
2013-06-24 09:03:00,52.0,44.0,-100.00,NW,316,0.0,0.0,75,0.00,,,0.00,82.000000,,2013-06-24 15:03:00,
2013-06-24 09:12:00,52.0,44.0,-100.00,NW,316,0.0,0.0,75,0.00,,,0.00,82.000000,,2013-06-24 15:12:00,
2013-06-24 09:24:00,52.0,44.0,-100.00,NW,316,0.0,0.0,75,0.00,,,0.00,82.000000,,2013-06-24 15:24:00,
2013-06-24 09:57:00,55.0,42.0,-100.00,ESE,113,0.0,3.0,62,0.00,,,0.00,128.000000,,2013-06-24 15:57:00,
2013-06-24 10:02:00,55.0,42.0,-100.00,ESE,113,0.0,3.0,62,0.00,,,0.00,128.000000,,2013-06-24 16:02:00,
2013-06-24 10:23:00,55.0,42.0,-100.00,ESE,113,0.0,3.0,62,0.00,,,0.00,128.000000,,2013-06-24 16:23:00,
2013-06-24 10:56:00,55.0,46.0,-100.00,WNW,300,2.0,3.0,72,0.00,,,0.00,192.000000,,2013-06-24 16:56:00,
2013-06-24 11:12:00,55.0,46.0,-100.00,WNW,300,2.0,3.0,72,0.00,,,0.00,192.000000,,2013-06-24 17:12:00,
2013-06-24 11:23:00,55.0,46.0,-100.00,WNW,300,2.0,3.0,72,0.00,,,0.00,192.000000,,2013-06-24 17:23:00,
2013-06-24 11:57:00,64.0,47.0,-100.00,West,271,2.0,5.0,53,-99.99,,,0.00,409.000000,,2013-06-24 17:57:00,
2013-06-24 12:02:00,64.0,47.0,-100.00,West,271,2.0,5.0,53,-99.99,,,0.00,409.000000,,2013-06-24 18:02:00,
2013-06-24 12:14:00,64.0,47.0,-100.00,West,271,2.0,5.0,53,-99.99,,,0.00,409.000000,,2013-06-24 18:14:00,
2013-06-24 12:23:00,64.0,47.0,-100.00,West,271,2.0,5.0,53,-99.99,,,0.00,409.000000,,2013-06-24 18:23:00,
2013-06-24 13:04:00,65.0,47.0,-100.00,WNW,292,5.0,6.0,53,0.00,,,0.00,522.000000,,2013-06-24 19:04:00,
2013-06-24 13:12:00,65.0,47.0,-100.00,WNW,292,5.0,6.0,53,0.00,,,0.00,522.000000,,2013-06-24 19:12:00,
2013-06-24 13:24:00,65.0,47.0,-100.00,WNW,292,5.0,6.0,53,0.00,,,0.00,522.000000,,2013-06-24 19:24:00,
2013-06-24 13:56:00,70.0,48.0,-100.00,WNW,295,4.0,9.0,46,0.00,,,0.00,561.000000,,2013-06-24 19:56:00,
2013-06-24 14:03:00,70.0,48.0,-100.00,WNW,295,4.0,9.0,46,0.00,,,0.00,561.000000,,2013-06-24 20:03:00,
2013-06-24 14:11:00,70.0,48.0,-100.00,WNW,295,4.0,9.0,46,0.00,,,0.00,561.000000,,2013-06-24 20:11:00,
2013-06-24 14:22:00,70.0,48.0,-100.00,WNW,295,4.0,9.0,46,0.00,,,0.00,561.000000,,2013-06-24 20:22:00,
2013-06-24 15:03:00,69.0,44.0,-100.00,WNW,287,7.0,10.0,41,0.00,,,0.00,707.000000,,2013-06-24 21:03:00,
2013-06-24 15:12:00,69.0,44.0,-100.00,WNW,287,7.0,10.0,41,0.00,,,0.00,707.000000,,2013-06-24 21:12:00,
2013-06-24 15:23:00,69.0,44.0,-100.00,WNW,287,7.0,10.0,41,0.00,,,0.00,707.000000,,2013-06-24 21:23:00,
2013-06-24 15:54:00,68.0,46.0,-100.00,NW,306,8.0,16.0,45,0.00,,,0.00,725.000000,,2013-06-24 21:54:00,
2013-06-24 16:04:00,68.0,46.0,-100.00,NW,306,8.0,16.0,45,0.00,,,0.00,725.000000,,2013-06-24 22:04:00,
2013-06-24 16:13:00,68.0,46.0,-100.00,NW,306,8.0,16.0,45,0.00,,,0.00,725.000000,,2013-06-24 22:13:00,
2013-06-24 16:22:00,68.0,46.0,-100.00,NW,306,8.0,16.0,45,0.00,,,0.00,725.000000,,2013-06-24 22:22:00,
2013-06-24 16:56:00,68.0,44.0,-100.00,West,270,1.0,21.0,42,0.00,,,0.00,389.000000,,2013-06-24 22:56:00,
2013-06-24 17:03:00,68.0,44.0,-100.00,West,270,1.0,21.0,42,0.00,,,0.00,389.000000,,2013-06-24 23:03:00,
2013-06-24 17:11:00,68.0,44.0,-100.00,West,270,1.0,21.0,42,0.00,,,0.00,389.000000,,2013-06-24 23:11:00,
2013-06-24 17:23:00,68.0,44.0,-100.00,West,270,1.0,21.0,42,0.00,,,0.00,389.000000,,2013-06-24 23:23:00,
2013-06-24 17:54:00,61.0,49.0,-100.00,SSE,153,6.0,15.0,64,0.00,,,0.00,134.000000,,2013-06-24 23:54:00,
2013-06-24 18:02:00,61.0,49.0,-100.00,SSE,153,6.0,15.0,64,0.00,,,0.00,134.000000,,2013-06-25 00:02:00,
2013-06-24 18:12:00,61.0,49.0,-100.00,SSE,153,6.0,15.0,64,0.00,,,0.00,134.000000,,2013-06-25 00:12:00,
2013-06-24 18:22:00,61.0,49.0,-100.00,SSE,153,6.0,15.0,64,0.00,,,0.00,134.000000,,2013-06-25 00:22:00,
2013-06-24 19:03:00,63.0,48.0,-100.00,North,352,1.0,33.0,59,0.00,,,0.00,189.000000,,2013-06-25 01:03:00,
2013-06-24 19:13:00,63.0,48.0,-100.00,North,352,1.0,33.0,59,0.00,,,0.00,189.000000,,2013-06-25 01:13:00,
2013-06-24 19:22:00,63.0,48.0,-100.00,North,352,1.0,33.0,59,0.00,,,0.00,189.000000,,2013-06-25 01:22:00,
2013-06-24 19:56:00,61.0,49.0,-100.00,WNW,284,0.0,13.0,65,0.00,,,0.00,139.000000,,2013-06-25 01:56:00,
2013-06-24 20:12:00,61.0,49.0,-100.00,WNW,284,0.0,13.0,65,0.00,,,0.00,139.000000,,2013-06-25 02:12:00,
2013-06-24 20:23:00,61.0,49.0,-100.00,WNW,284,0.0,13.0,65,0.00,,,0.00,139.000000,,2013-06-25 02:23:00,
2013-06-24 20:56:00,55.0,49.0,-100.00,East,87,2.0,7.0,80,0.05,,,0.05,36.000000,,2013-06-25 02:56:00,
2013-06-24 21:04:00,55.0,49.0,-100.00,East,87,2.0,7.0,80,0.05,,,0.05,36.000000,,2013-06-25 03:04:00,
2013-06-24 21:12:00,55.0,49.0,-100.00,East,87,2.0,7.0,80,0.05,,,0.05,36.000000,,2013-06-25 03:12:00,
2013-06-24 21:23:00,55.0,49.0,-100.00,East,87,2.0,7.0,80,0.05,,,0.05,36.000000,,2013-06-25 03:23:00,
2013-06-24 22:01:00,54.0,51.0,-100.00,East,101,0.0,7.0,88,0.00,,,0.05,21.000000,,2013-06-25 04:01:00,
2013-06-24 22:11:00,54.0,51.0,-100.00,East,101,0.0,7.0,88,0.00,,,0.05,21.000000,,2013-06-25 04:11:00,
2013-06-24 22:22:00,54.0,51.0,-100.00,East,101,0.0,7.0,88,0.00,,,0.05,21.000000,,2013-06-25 04:22:00,
2013-06-24 22:52:00,54.0,52.0,-100.00,ESE,103,0.0,8.0,92,0.00,,,0.05,5.000000,,2013-06-25 04:52:00,
2013-06-24 23:01:00,54.0,52.0,-100.00,ESE,103,0.0,8.0,92,0.00,,,0.05,5.000000,,2013-06-25 05:01:00,
2013-06-24 23:11:00,54.0,52.0,-100.00,ESE,103,0.0,8.0,92,0.00,,,0.05,5.000000,,2013-06-25 05:11:00,
2013-06-24 23:22:00,54.0,52.0,-100.00,ESE,103,0.0,8.0,92,0.00,,,0.05,5.000000,,2013-06-25 05:22:00,
2013-06-24 23:52:00,53.0,51.0,-100.00,East,84,0.0,0.0,94,0.00,,,0.05,0.000000,,2013-06-25 05:52:00,